FW7086 Weather Reports


Display with metric or nautical units.
time (UTC)temp
F
wind
direction
speed
MPH
gust
MPH
rain 1hr
in
rain 24hr
in
rain mn
in
humidity
%
barometer
mb
20260831124611 71 157 0.0 0.0 0.07 0.03 0.03 90 1017.7
20260831124106 71 105 0.0 0.0 0.00 0.02 0.02 90 1017.5
20260831123606 71 3 0.0 0.0 0.00 0.02 0.02 89 1017.8
20260831123105 71 34 0.0 0.0 0.00 0.02 0.02 89 1017.4
20260831122600 71 81 0.0 0.0 0.00 0.02 0.02 89 1017.4
20260831122056 71 25 0.0 0.0 0.00 0.02 0.02 89 1017.1
20260831121555 71 88 0.0 0.0 0.00 0.02 0.02 89 1017.1
20260831121052 71 32 0.0 0.0 0.00 0.02 0.02 88 1017.0
20260831120551 72 165 0.0 0.0 0.00 0.02 0.02 86 1016.9
20260831120047 71 140 0.0 0.0 0.00 0.02 0.02 85 1016.7
20260831115542 71 5 0.0 0.0 0.00 0.02 0.02 87 1017.0
20260831115037 71 14 1.0 2.0 0.00 0.02 0.02 89 1016.8
20260831114537 71 28 1.0 1.0 0.00 0.02 0.02 87 1016.5
20260831114036 73 67 0.0 0.0 0.00 0.02 0.02 84 1016.3
20260831113536 73 19 0.0 0.0 0.12 0.02 0.02 80 1016.1
20260831113032 75 211 3.0 3.0 0.12 0.02 0.02 78 1016.0
20260831112531 75 133 1.0 2.0 0.00 0.00 0.00 74 1016.0
20260831112026 75 165 3.0 3.0 0.00 0.00 0.00 74 1015.8
20260831111522 75 196 3.0 3.0 0.00 0.00 0.00 75 1015.6
20260831111018 75 155 2.0 2.0 0.00 0.00 0.00 76 1015.5
20260831110513 74 148 0.0 1.0 0.00 0.00 0.00 78 1015.5
20260831110014 74 154 2.0 3.0 0.00 0.00 0.00 78 1015.6
20260831105508 74 153 2.0 3.0 0.00 0.00 0.00 78 1015.5
20260831105003 74 155 2.0 2.0 0.00 0.00 0.00 78 1015.4
20260831104459 74 145 2.0 3.0 0.00 0.00 0.00 78 1015.8
20260831103955 74 166 2.0 3.0 0.00 0.00 0.00 79 1015.6
20260831103454 74 183 1.0 2.0 0.00 0.00 0.00 78 1015.8
20260831102950 74 191 0.0 0.0 0.00 0.00 0.00 79 1015.5
20260831102445 74 164 0.0 0.0 0.00 0.00 0.00 80 1015.5
20260831101940 74 146 2.0 2.0 0.00 0.00 0.00 80 1015.5
20260831101435 74 174 4.0 6.0 0.00 0.00 0.00 80 1015.6
20260831100931 74 165 1.0 1.0 0.00 0.00 0.00 81 1015.4
20260831100427 74 160 2.0 2.0 0.00 0.00 0.00 80 1015.6
20260831095921 74 158 3.0 3.0 0.00 0.00 0.00 81 1015.6
20260831095421 74 162 3.0 4.0 0.00 0.00 0.00 81 1015.6
20260831094916 74 186 2.0 3.0 0.00 0.00 0.00 81 1015.5
20260831094412 74 159 1.0 1.0 0.00 0.00 0.00 81 1015.5
20260831093908 74 205 2.0 3.0 0.00 0.00 0.00 81 1015.8
20260831093402 74 166 4.0 4.0 0.00 0.00 0.00 82 1015.7
20260831092859 74 217 0.0 1.0 0.00 0.00 0.00 82 1015.7
20260831092354 74 201 1.0 2.0 0.00 0.00 0.00 82 1015.6
20260831091849 74 164 1.0 2.0 0.00 0.00 0.00 82 1015.6
20260831091345 74 136 1.0 1.0 0.00 0.00 0.00 82 1015.7
20260831090840 74 161 2.0 2.0 0.00 0.00 0.00 82 1015.9
20260831090336 74 159 2.0 3.0 0.00 0.00 0.00 81 1015.9
20260831085833 74 172 3.0 3.0 0.00 0.00 0.00 82 1015.7
20260831085332 74 163 1.0 2.0 0.00 0.00 0.00 81 1015.9
20260831084827 74 151 2.0 2.0 0.00 0.00 0.00 81 1016.0
20260831084323 74 160 2.0 2.0 0.00 0.00 0.00 81 1015.9
20260831083819 75 155 1.0 1.0 0.00 0.00 0.00 81 1015.9
20260831083314 75 180 2.0 3.0 0.00 0.00 0.00 80 1015.8
20260831082813 75 164 2.0 2.0 0.00 0.00 0.00 82 1016.0
20260831082308 75 170 4.0 6.0 0.00 0.00 0.00 81 1015.9
20260831081804 75 181 4.0 4.0 0.00 0.00 0.00 81 1015.8
20260831081259 75 151 2.0 2.0 0.00 0.00 0.00 83 1015.9
20260831080754 75 158 1.0 1.0 0.00 0.00 0.00 83 1015.7
20260831080249 74 157 0.0 1.0 0.00 0.00 0.00 83 1015.9
20260831075745 75 147 0.0 0.0 0.00 0.00 0.00 84 1016.0
20260831075241 75 155 0.0 0.0 0.00 0.00 0.00 84 1016.0
20260831074740 75 155 0.0 0.0 0.00 0.00 0.00 83 1015.8
20260831074239 75 157 1.0 1.0 0.00 0.00 0.00 82 1015.9
20260831073736 75 147 0.0 1.0 0.00 0.00 0.00 82 1015.9
20260831073234 75 185 2.0 3.0 0.00 0.00 0.00 83 1015.9
20260831072729 75 71 0.0 0.0 0.00 0.00 0.00 84 1015.9
20260831072226 75 109 0.0 0.0 0.00 0.00 0.00 84 1015.9
20260831071726 75 171 0.0 1.0 0.00 0.00 0.00 83 1015.9
20260831071221 75 115 1.0 1.0 0.00 0.00 0.00 83 1016.0
20260831070720 75 150 0.0 0.0 0.00 0.00 0.00 83 1016.0
20260831070215 75 171 0.0 1.0 0.00 0.00 0.00 84 1015.9
20260831065714 75 147 1.0 2.0 0.00 0.00 0.00 84 1016.0
20260831065213 75 160 0.0 1.0 0.00 0.00 0.00 85 1016.3
20260831064708 75 132 0.0 0.0 0.00 0.00 0.00 86 1016.2
20260831064203 75 129 1.0 1.0 0.00 0.00 0.00 86 1016.1
20260831063659 75 150 0.0 1.0 0.00 0.00 0.00 87 1016.1
20260831063154 74 161 2.0 3.0 0.00 0.00 0.00 88 1016.0
20260831062654 74 145 1.0 1.0 0.00 0.00 0.00 89 1016.4
20260831062154 74 158 0.0 0.0 0.00 0.00 0.00 90 1016.3
20260831061652 73 162 0.0 0.0 0.00 0.00 0.00 91 1016.3
20260831061148 73 133 0.0 0.0 0.00 0.00 0.00 93 1016.3
20260831060644 73 93 0.0 0.0 0.00 0.00 0.00 92 1016.4
20260831060143 73 93 0.0 0.0 0.00 0.00 0.00 92 1016.4
20260831055642 73 93 0.0 0.0 0.00 0.00 0.00 91 1016.4
20260831055138 74 93 0.0 0.0 0.00 0.00 0.00 91 1016.3
20260831054638 74 93 0.0 0.0 0.00 0.00 0.00 91 1016.1
20260831054137 73 93 0.0 0.0 0.00 0.00 0.00 91 1016.2
20260831053632 73 93 0.0 0.0 0.00 0.00 0.00 91 1016.2
20260831053131 73 164 0.0 0.0 0.00 0.00 0.00 92 1016.3
20260831052630 74 165 0.0 0.0 0.00 0.00 0.00 91 1016.1
20260831052130 74 153 0.0 0.0 0.00 0.00 0.00 91 1016.3
20260831051628 74 61 0.0 0.0 0.00 0.00 0.00 92 1016.3
20260831051127 74 100 0.0 0.0 0.00 0.00 0.00 92 1016.1
20260831050627 74 108 0.0 0.0 0.00 0.00 0.00 92 1016.2
20260831050126 74 126 0.0 0.0 0.00 0.00 0.00 92 1016.1
20260831045626 74 106 0.0 0.0 0.00 0.18 0.18 92 1016.2
20260831045121 74 75 0.0 0.0 0.00 0.18 0.18 91 1016.4
20260831044616 74 62 1.0 2.0 0.00 0.18 0.18 91 1016.3
20260831044111 75 77 0.0 0.0 0.00 0.18 0.18 91 1016.1
20260831043607 75 44 0.0 0.0 0.00 0.18 0.18 90 1016.3
20260831043102 74 63 0.0 0.0 0.00 0.18 0.18 91 1016.1
20260831042601 74 55 0.0 0.0 0.00 0.18 0.18 92 1016.2
20260831042056 74 84 0.0 0.0 0.00 0.18 0.18 91 1015.9
20260831041551 74 139 0.0 0.0 0.00 0.18 0.18 92 1015.8
20260831041051 75 126 1.0 2.0 0.00 0.18 0.18 92 1015.8
20260831040545 74 192 5.0 6.0 0.00 0.18 0.18 92 1016.0
20260831040045 74 174 1.0 2.0 0.00 0.18 0.18 93 1015.9
20260831035543 74 174 2.0 3.0 0.00 0.18 0.18 93 1016.3
20260831035039 74 129 0.0 0.0 0.00 0.18 0.18 94 1016.1
20260831034538 74 135 1.0 1.0 0.05 0.18 0.18 94 1016.1
20260831034033 74 170 2.0 2.0 0.05 0.18 0.18 94 1016.2
20260831033529 75 164 1.0 1.0 0.00 0.17 0.17 93 1016.7
20260831033024 75 169 4.0 6.0 0.00 0.17 0.17 92 1017.0
20260831032523 75 172 3.0 4.0 0.00 0.17 0.17 91 1017.3
20260831032020 75 176 2.0 2.0 0.00 0.17 0.17 91 1017.3
20260831031519 75 197 1.0 2.0 0.00 0.17 0.17 91 1017.5
20260831031018 75 178 2.0 3.0 0.00 0.17 0.17 91 1017.3
20260831030518 75 157 2.0 3.0 0.00 0.17 0.17 92 1017.6
20260831030017 75 165 0.0 0.0 0.00 0.17 0.17 93 1017.4
20260831025515 75 167 2.0 2.0 0.00 0.17 0.17 92 1017.6
20260831025011 75 196 3.0 4.0 0.00 0.17 0.17 93 1017.3
20260831024507 75 190 0.0 0.0 0.00 0.17 0.17 94 1017.3
20260831024006 75 179 0.0 0.0 0.00 0.17 0.17 94 1017.1
20260831023504 74 167 1.0 2.0 0.07 0.17 0.17 95 1017.4
20260831022959 75 189 0.0 0.0 0.07 0.17 0.17 95 1017.6
20260831022458 75 166 0.0 0.0 0.05 0.16 0.16 94 1017.6
20260831021953 75 1 0.0 0.0 0.05 0.16 0.16 93 1017.6
20260831021452 75 204 0.0 0.0 0.00 0.15 0.15 93 1017.5
20260831020948 75 169 0.0 0.0 0.00 0.15 0.15 93 1017.6
20260831020448 75 219 0.0 0.0 0.00 0.15 0.15 93 1017.6
20260831015943 75 180 0.0 0.0 0.00 0.15 0.15 92 1017.6
20260831015439 75 190 0.0 0.0 0.00 0.15 0.15 92 1017.4
20260831014939 75 159 1.0 2.0 0.00 0.15 0.15 92 1017.4
20260831014434 75 176 0.0 0.0 0.00 0.15 0.15 92 1017.2
20260831013930 75 156 1.0 2.0 0.00 0.15 0.15 92 1017.4
20260831013426 75 225 1.0 1.0 0.00 0.15 0.15 92 1017.2
20260831012925 75 221 3.0 3.0 0.00 0.15 0.15 92 1017.2
20260831012420 75 218 1.0 1.0 0.00 0.15 0.15 93 1017.3
20260831011915 75 210 0.0 0.0 0.00 0.15 0.15 93 1017.2
20260831011410 75 164 0.0 0.0 0.00 0.15 0.15 93 1016.9
20260831010906 75 152 0.0 0.0 0.00 0.15 0.15 93 1017.1
20260831010405 74 169 0.0 0.0 0.00 0.15 0.15 93 1016.9
20260831005901 74 158 0.0 0.0 0.00 0.15 0.15 93 1016.5
20260831005356 75 133 0.0 0.0 0.00 0.15 0.15 93 1016.7
20260831004851 75 175 0.0 0.0 0.00 0.15 0.15 93 1016.8
20260831004348 75 116 0.0 0.0 0.00 0.15 0.15 93 1016.8
20260831003843 75 23 0.0 0.0 0.00 0.15 0.15 92 1016.7
20260831003339 75 163 0.0 0.0 0.00 0.15 0.15 92 1016.5
20260831002838 75 189 1.0 1.0 0.00 0.15 0.15 92 1016.5
20260831002337 75 175 2.0 2.0 0.00 0.15 0.15 91 1016.4
20260831001833 75 160 2.0 2.0 0.00 0.15 0.15 92 1016.9
20260831001328 75 167 1.0 1.0 0.00 0.15 0.15 91 1016.9
20260831000826 75 141 1.0 1.0 0.00 0.15 0.15 91 1017.1
20260831000326 75 113 1.0 1.0 0.00 0.15 0.15 92 1016.9
20260830235824 75 151 1.0 1.0 0.00 0.15 0.15 92 1016.9
20260830235319 75 157 1.0 1.0 0.00 0.15 0.15 91 1017.4
20260830234814 75 155 2.0 3.0 0.00 0.15 0.15 91 1017.5
20260830234310 75 146 0.0 0.0 0.00 0.15 0.15 92 1017.2
20260830233806 75 141 0.0 1.0 0.00 0.15 0.15 92 1017.4
20260830233301 74 157 0.0 1.0 0.00 0.15 0.15 93 1017.2
20260830232756 74 158 0.0 0.0 0.00 0.15 0.15 93 1017.3
20260830232252 74 131 0.0 0.0 0.00 0.15 0.15 93 1017.4
20260830231748 75 149 0.0 0.0 0.07 0.15 0.15 92 1017.4
20260830231248 75 168 1.0 1.0 0.07 0.15 0.15 91 1017.6
20260830230743 75 129 0.0 0.0 0.00 0.14 0.14 91 1017.6
20260830230238 75 149 0.0 0.0 0.00 0.14 0.14 91 1017.6
20260830225737 75 228 1.0 1.0 0.00 0.14 0.14 91 1017.8
20260830225233 75 165 1.0 1.0 0.00 0.14 0.14 90 1017.9
20260830224732 75 168 2.0 2.0 0.00 0.14 0.14 90 1017.8
20260830224227 75 140 0.0 0.0 0.00 0.14 0.14 90 1018.0
20260830223724 75 153 2.0 2.0 0.00 0.14 0.14 90 1017.7
20260830223219 75 158 0.0 1.0 0.00 0.14 0.14 89 1017.4
20260830222714 75 176 1.0 1.0 0.07 0.14 0.14 88 1017.6
20260830222209 75 153 1.0 2.0 0.07 0.14 0.14 87 1017.5
20260830221705 76 167 1.0 2.0 0.00 0.13 0.13 86 1017.5
20260830221201 76 151 3.0 3.0 0.00 0.13 0.13 85 1017.4
20260830220657 76 159 1.0 1.0 0.00 0.13 0.13 85 1017.4
20260830220155 76 158 1.0 2.0 0.00 0.13 0.13 84 1017.6
20260830215655 76 161 1.0 2.0 0.00 0.13 0.13 84 1017.5
20260830215149 76 172 2.0 2.0 0.00 0.13 0.13 84 1017.5
20260830214645 76 169 1.0 1.0 0.00 0.13 0.13 84 1017.5
20260830214144 76 176 4.0 4.0 0.00 0.13 0.13 83 1017.6
20260830213644 76 164 1.0 2.0 0.00 0.13 0.13 84 1017.5
20260830213139 76 162 3.0 3.0 0.00 0.13 0.13 84 1017.7
20260830212635 76 167 2.0 2.0 0.00 0.13 0.13 84 1017.6
20260830212130 76 182 2.0 3.0 0.00 0.13 0.13 84 1017.8
20260830211625 76 226 4.0 4.0 0.00 0.13 0.13 84 1017.8
20260830211125 76 159 1.0 1.0 0.00 0.13 0.13 85 1017.7
20260830210620 76 149 1.0 3.0 0.00 0.13 0.13 85 1017.8
20260830210119 76 171 2.0 3.0 0.00 0.13 0.13 84 1017.8
20260830205616 76 187 1.0 1.0 0.00 0.13 0.13 84 1017.9
20260830205113 76 160 2.0 2.0 0.00 0.13 0.13 84 1017.5
20260830204612 76 150 1.0 1.0 0.00 0.13 0.13 83 1017.6
20260830204110 77 166 0.0 2.0 0.00 0.13 0.13 83 1017.7
20260830203607 77 163 6.0 7.0 0.00 0.13 0.13 82 1017.6
20260830203102 77 179 1.0 2.0 0.00 0.13 0.13 84 1017.3
20260830202601 77 177 2.0 3.0 0.00 0.13 0.13 84 1017.5
20260830202057 77 168 3.0 4.0 0.00 0.13 0.13 84 1017.7
20260830201556 76 169 4.0 6.0 0.00 0.13 0.13 86 1017.6
20260830201051 75 207 1.0 2.0 0.00 0.13 0.13 88 1017.6
20260830200547 75 187 2.0 2.0 0.00 0.13 0.13 89 1017.5
20260830200045 75 169 4.0 4.0 0.12 0.13 0.13 89 1017.6
20260830195542 75 214 4.0 4.0 0.17 0.13 0.13 87 1017.8
20260830195039 77 178 2.0 2.0 0.05 0.11 0.11 84 1018.0
20260830194539 77 187 2.0 2.0 0.00 0.10 0.10 83 1017.7
20260830194039 78 140 3.0 4.0 0.00 0.10 0.10 80 1017.6
20260830193538 79 149 3.0 3.0 0.00 0.10 0.10 75 1017.9
20260830193034 80 16 3.0 4.0 0.00 0.10 0.10 72 1017.8
20260830192529 81 215 5.0 9.0 0.00 0.10 0.10 68 1017.8
20260830192024 82 249 3.0 3.0 0.00 0.10 0.10 67 1017.9
20260830191519 82 81 1.0 2.0 0.00 0.10 0.10 66 1017.9
20260830191019 82 192 1.0 1.0 0.00 0.10 0.10 66 1017.6
20260830190515 82 280 1.0 2.0 0.00 0.10 0.10 66 1017.5
20260830190011 82 144 4.0 6.0 0.00 0.10 0.10 65 1017.5
20260830185509 82 180 2.0 2.0 0.00 0.10 0.10 65 1017.2
20260830185005 82 190 4.0 4.0 0.00 0.10 0.10 64 1017.0
20260830184505 82 194 7.0 8.0 0.00 0.10 0.10 64 1016.8
20260830183959 82 170 3.0 4.0 0.00 0.10 0.10 64 1017.0
20260830183459 82 162 3.0 3.0 0.00 0.10 0.10 64 1016.7
20260830182955 83 214 3.0 4.0 0.00 0.10 0.10 63 1016.5
20260830182451 83 194 2.0 3.0 0.00 0.10 0.10 63 1016.7
20260830181947 84 252 4.0 6.0 0.00 0.10 0.10 62 1016.4
20260830181443 83 152 5.0 6.0 0.00 0.10 0.10 62 1016.3
20260830180942 83 182 2.0 3.0 0.00 0.10 0.10 62 1016.3
20260830180442 83 139 5.0 6.0 0.00 0.10 0.10 61 1016.4
20260830175941 83 337 1.0 1.0 0.00 0.10 0.10 63 1016.1
20260830175441 83 187 7.0 10.0 0.00 0.10 0.10 61 1016.4
20260830174936 83 257 2.0 3.0 0.00 0.10 0.10 62 1016.5
20260830174432 83 180 2.0 2.0 0.00 0.10 0.10 63 1016.4
20260830173927 82 177 6.0 9.0 0.00 0.10 0.10 63 1016.5
20260830173422 82 192 4.0 6.0 0.00 0.10 0.10 64 1016.7
20260830172918 82 228 4.0 7.0 0.00 0.10 0.10 63 1016.9
20260830172414 82 177 6.0 7.0 0.00 0.10 0.10 63 1016.7
20260830171910 82 182 9.0 10.0 0.00 0.10 0.10 63 1016.8
20260830171406 83 134 2.0 2.0 0.00 0.10 0.10 64 1017.1
20260830170905 82 221 4.0 4.0 0.00 0.10 0.10 64 1016.9
20260830170405 81 201 6.0 9.0 0.00 0.10 0.10 65 1016.7
20260830165903 82 140 7.0 11.0 0.00 0.10 0.10 64 1016.7
20260830165359 81 197 2.0 4.0 0.00 0.10 0.10 65 1017.0
20260830164856 81 183 4.0 6.0 0.00 0.10 0.10 66 1016.7
20260830164352 81 203 0.0 1.0 0.00 0.10 0.10 67 1017.0
20260830163848 80 167 6.0 7.0 0.00 0.10 0.10 67 1017.0
20260830163349 80 118 5.0 6.0 0.00 0.10 0.10 69 1017.2
20260830162848 80 181 2.0 3.0 0.00 0.10 0.10 70 1017.0
20260830162345 79 230 3.0 7.0 0.00 0.10 0.10 72 1016.9
20260830161840 78 178 3.0 4.0 0.00 0.10 0.10 73 1017.1
20260830161339 78 267 9.0 11.0 0.00 0.10 0.10 73 1017.0
20260830160834 77 168 7.0 10.0 0.00 0.10 0.10 75 1016.8
20260830160330 77 140 7.0 10.0 0.00 0.10 0.10 76 1017.0
20260830155825 77 147 6.0 7.0 0.00 0.10 0.10 76 1017.0
20260830155322 77 192 2.0 3.0 0.00 0.10 0.10 76 1017.1
20260830154821 76 141 5.0 6.0 0.00 0.10 0.10 79 1017.3
20260830154317 75 206 3.0 3.0 0.00 0.10 0.10 80 1017.1
20260830153814 74 159 6.0 8.0 0.00 0.10 0.10 81 1017.1
20260830153309 74 153 7.0 8.0 0.00 0.10 0.10 81 1017.2
20260830152807 74 164 3.0 4.0 0.00 0.10 0.10 82 1017.1
20260830152305 74 182 6.0 8.0 0.00 0.10 0.10 81 1016.9
20260830151802 74 187 6.0 9.0 0.00 0.10 0.10 83 1017.0
20260830151301 73 162 4.0 6.0 0.00 0.10 0.10 84 1016.9
20260830150757 74 185 3.0 6.0 0.00 0.10 0.10 84 1016.9
20260830150256 73 165 2.0 2.0 0.00 0.10 0.10 86 1017.0
20260830145751 73 181 4.0 6.0 0.00 0.10 0.10 86 1016.9
20260830145246 71 184 4.0 4.0 0.00 0.10 0.10 88 1017.0
20260830144741 71 168 7.0 9.0 0.00 0.10 0.10 89 1017.0
20260830144237 71 174 4.0 7.0 0.00 0.10 0.10 90 1017.0
20260830143733 70 139 6.0 7.0 0.00 0.10 0.10 90 1017.3
20260830143232 70 169 4.0 6.0 0.00 0.10 0.10 90 1017.5
20260830142727 70 152 3.0 3.0 0.00 0.10 0.10 91 1017.1
20260830142222 70 171 6.0 7.0 0.00 0.10 0.10 91 1017.2
20260830141717 69 185 1.0 2.0 0.00 0.10 0.10 91 1017.1
20260830141212 69 189 6.0 7.0 0.00 0.10 0.10 91 1017.1
20260830140707 69 222 5.0 9.0 0.00 0.10 0.10 91 1017.0
20260830140202 69 183 6.0 8.0 0.00 0.10 0.10 92 1017.3
20260830135657 69 181 6.0 7.0 0.00 0.10 0.10 93 1017.3
20260830135152 69 153 5.0 7.0 0.00 0.10 0.10 93 1017.3
20260830134648 69 171 4.0 7.0 0.00 0.10 0.10 94 1017.4
20260830134142 69 202 5.0 6.0 0.00 0.10 0.10 94 1017.6
20260830133638 69 158 3.0 3.0 0.07 0.10 0.10 94 1017.8
20260830133133 69 171 8.0 9.0 0.12 0.10 0.10 94 1018.0
20260830132630 69 147 3.0 3.0 0.05 0.09 0.09 93 1018.4
20260830132125 69 208 2.0 3.0 0.07 0.08 0.08 93 1018.6
20260830131624 69 222 0.0 0.0 0.12 0.08 0.08 93 1018.1
20260830131119 69 171 2.0 3.0 0.05 0.07 0.07 93 1018.2
20260830130614 69 105 5.0 6.0 0.00 0.06 0.06 92 1018.2
20260830130109 69 176 5.0 6.0 0.07 0.06 0.06 92 1018.3
20260830125608 69 192 2.0 3.0 0.07 0.06 0.06 92 1018.4
20260830125108 69 117 2.0 3.0 0.05 0.05 0.05 91 1018.3